[[{"header":{"parameterUnit":"m.s-1","parameterCategory":1,"la1":30.2991,"la2":30.254,"lo1":-89.0895,"lo2":-89.0444,"dy":0.0017,"dx":0.0017,"nx":28,"ny":28,"refTime":"2025-11-29T09:00:00:Z","depth":0,"parameterNumber":2,"parameterNumberName":"U-component_of_WINDS"},"data":[0,0,0,0,0,0,0,0,0,0,0,0,0,0,0,0,0,0,0,0,0,0,0,0,0,0,0,0,0,0,0,0,0,0,0,0,0,0,0,0,0,0,0,0,0,0,0,0,0,0,0,0,0,0,0,0,0,0,-3.5164,-3.5165,0,-3.5218,-3.5219,-3.5219,-3.514,-3.5137,-3.5135,-3.5132,-3.5187,-3.519,-3.5194,0,0,0,0,0,0,0,0,0,0,0,0,0,-3.4992,-3.4996,-3.5164,-3.5165,-3.5166,-3.5218,-3.5219,-3.522,-3.5141,-3.5137,-3.5134,-3.5131,-3.5185,-3.519,-3.5195,0,0,0,0,0,0,0,0,0,0,0,0,0,-3.5059,-3.4997,-3.5164,-3.5133,-3.513,-3.5218,-3.5219,-3.522,-3.5141,-3.5137,-3.5133,-3.5129,-3.5184,-3.519,-3.5195,-3.5316,0,0,-3.5214,-3.5217,0,0,0,0,0,0,0,0,-3.5055,-3.5065,-3.5137,-3.5135,-3.5133,-3.5168,-3.5178,-3.5252,-3.5143,-3.5137,-3.5132,-3.5127,-3.5184,-3.519,-3.5209,-3.5319,-3.5321,-3.5215,-3.5218,-3.5221,-3.5223,0,0,0,0,0,0,0,-3.505,-3.5062,-3.5186,-3.5138,-3.5135,-3.5115,-3.512,-3.5192,-3.5183,-3.5137,-3.5132,-3.5139,-3.5182,-3.5203,-3.5209,-3.5322,-3.5214,-3.522,-3.5223,-3.5226,-3.5534,-3.5538,0,0,0,0,0,0,-3.505,-3.5059,-3.5184,-3.5187,-3.5083,-3.5122,-3.5127,-3.5161,-3.5182,-3.5181,-3.5143,-3.5135,-3.5195,-3.5203,-3.5211,-3.5355,-3.5221,-3.5226,-3.523,-3.553,-3.5535,-3.554,0,0,0,0,0,0,-3.5046,-3.5062,-3.5182,-3.5122,-3.5135,-3.5129,-3.5168,-3.5164,-3.5185,-3.5186,-3.5184,-3.5166,-3.5192,-3.5203,-3.5291,-3.5355,-3.5229,-3.5235,-3.5524,-3.5531,-3.5538,-3.5643,0,0,0,0,0,0,-3.5042,-3.5061,-3.5107,-3.5123,-3.5139,-3.5261,-3.5172,-3.5168,-3.5196,-3.5187,-3.5208,-3.5207,-3.5189,-3.5282,-3.5297,-3.5362,-3.5239,-3.5518,-3.5527,-3.5535,-3.5633,-3.5652,-3.5668,0,0,0,0,0,-3.5036,-3.5134,-3.511,-3.5125,-3.5197,-3.5265,-3.5274,-3.5252,-3.5202,-3.5248,-3.5248,-3.5207,-3.5346,-3.5292,-3.5308,-3.5375,-3.5514,-3.5525,-3.5535,-3.5626,-3.5649,-3.5668,0,0,0,0,0,0,-3.5126,-3.5136,-3.5109,-3.5215,-3.524,-3.5252,-3.531,-3.5277,-3.5316,-3.5306,-3.5276,-3.5282,-3.5377,-3.5384,-3.5324,-3.5493,-3.5422,-3.5436,-3.5485,-3.5507,-3.5524,-3.5521,-3.5244,0,0,0,0,0,-3.5158,-3.5213,-3.5219,-3.5312,-3.5326,-3.5316,-3.5345,-3.5326,-3.535,-3.536,-3.5367,-3.5392,-3.5441,-3.5474,-3.5519,-3.5633,-3.5637,-3.5688,-3.5705,-3.5719,-3.5732,-3.5794,-3.5816,-3.5574,-3.5574,-3.5573,0,0,-3.5225,-3.5237,-3.5274,-3.533,-3.5347,-3.5405,-3.5325,-3.5389,-3.5432,-3.5369,-3.5454,-3.546,-3.5485,-3.5588,-3.5633,-3.5597,-3.58,-3.5732,-3.5744,-3.5749,-3.5807,-3.583,-3.585,-3.5581,-3.5579,-3.5578,0,0,-3.5377,-3.5392,-3.5472,-3.549,-3.5517,-3.5509,-3.5529,-3.5545,-3.5547,-3.5631,-3.5585,-3.5635,-3.572,-3.5741,-3.5763,-3.5922,-3.5885,-3.5938,-3.6029,-3.609,-3.6109,-3.6126,-3.6184,-3.6205,-3.595,-3.595,-3.5951,0,-3.5457,-3.5543,-3.5517,-3.5585,-3.5611,-3.5557,-3.5638,-3.5657,-3.5697,-3.5716,-3.5675,-3.5782,-3.5795,-3.5902,-3.5941,-3.5959,-3.5981,-3.5936,-3.6108,-3.6125,-3.614,-3.6195,-3.6217,-3.5957,-3.5956,-3.5955,-3.5955,0,-3.5641,-3.5701,-3.5762,-3.5803,-3.5836,-3.591,-3.5894,-3.5931,-3.5908,-3.5905,-3.5992,-3.6006,-3.6053,-3.6077,-3.6055,-3.6181,-3.6158,-3.6113,-3.6041,-3.617,-3.6221,-3.6242,-3.5966,-3.5963,-3.5962,-3.596,0,0,-3.5852,-3.5877,-3.59,-3.5918,-3.5943,-3.5989,-3.606,-3.6107,-3.614,-3.6169,-3.6228,-3.6301,-3.6261,-3.6285,-3.6265,-3.6318,-3.6445,-3.6267,-3.6267,-3.6301,-3.6585,-3.6619,-3.6644,-3.642,-3.6424,-3.6427,-3.6583,0,-3.6005,-3.6129,-3.6107,-3.6228,-3.6283,-3.6232,-3.6294,-3.6317,-3.6315,-3.6362,-3.636,-3.6413,-3.6354,-3.6369,-3.6419,-3.6419,-3.6502,-3.6407,-3.6475,-3.6478,-3.6472,-3.6671,-3.6707,-3.6854,-3.6603,-3.6606,-3.6608,0,-3.62,-3.6237,-3.6364,-3.6381,-3.6403,-3.6459,-3.6501,-3.6546,-3.6569,-3.6565,-3.6592,-3.6563,-3.6633,-3.6559,-3.6656,-3.6593,-3.6619,-3.6623,-3.6628,-3.6635,-3.6552,-3.6684,-3.69,-3.6923,-3.6639,-3.6637,-3.6635,0,-3.6344,-3.6425,-3.6511,-3.6528,-3.6549,-3.659,-3.6601,-3.6621,-3.665,-3.6686,-3.6705,-3.6748,-3.6772,-3.6806,-3.6789,-3.6736,-3.689,-3.6814,-3.6889,-3.6889,-3.6925,-3.6923,-3.7149,-3.6939,-3.6939,-3.6939,-3.6938,0,-3.6518,-3.6597,-3.6576,-3.6629,-3.6717,-3.6691,-3.6778,-3.6782,-3.68,-3.6853,-3.6811,-3.6862,-3.6835,-3.6883,-3.687,-3.6953,-3.6964,-3.6962,-3.6958,-3.6967,-3.6968,-3.6985,-3.6975,-3.6944,-3.6943,-3.6942,-3.6941,0,-3.6693,-3.6682,-3.6773,-3.6786,-3.6791,-3.6855,-3.6866,-3.6915,-3.691,-3.6978,-3.6992,-3.6985,-3.704,-3.7025,-3.7085,-3.7076,-3.7181,-3.7163,-3.7174,-3.717,-3.7246,-3.724,-3.7493,-3.7525,-3.7293,-3.7295,-3.7297,0,-3.6806,-3.6866,-3.6886,-3.6918,-3.6932,-3.6985,-3.7016,-3.6992,-3.7025,-3.7056,-3.7102,-3.7153,-3.7193,-3.7283,-3.7283,-3.7328,-3.7312,-3.7397,-3.7318,-3.7326,-3.7315,-3.7312,-3.7318,-3.7414,-3.7416,-3.7419,-3.742,0,-3.7008,-3.6999,-3.7044,-3.7088,-3.7125,-3.7158,-3.7187,-3.7216,-3.7194,-3.7234,-3.729,-3.7321,-3.7381,-3.7433,-3.7475,-3.7485,-3.745,-3.7445,-3.7465,-3.7476,-3.748,-3.748,-3.7218,-3.744,-3.7438,-3.7436,-3.7435,-3.7435,-3.7156,-3.7207,-3.7229,-3.7281,-3.73,-3.7329,-3.7376,-3.7377,-3.7424,-3.7472,-3.7454,-3.7519,-3.754,-3.7592,-3.7608,-3.7658,-3.7625,-3.7654,-3.7661,-3.7669,-3.7679,-3.7471,-3.7665,-3.7664,-3.7664,-3.7663,-3.7663,0,-3.7357,-3.7368,-3.7416,-3.7458,-3.7499,-3.7462,-3.7492,-3.7529,-3.7586,-3.7609,-3.7649,-3.7714,-3.7763,-3.7767,-3.7813,-3.7852,-3.7837,-3.7866,-3.7863,-3.7866,-3.7705,-3.7684,-3.7877,-3.7877,-3.7877,-3.7877,-3.7877,-3.7877,-3.7466,-3.7551,-3.7545,-3.764,-3.765,-3.7713,-3.7734,-3.7759,-3.7778,-3.7852,-3.7893,-3.7895,-3.791,-3.7958,-3.8001,-3.8001,-3.8021,-3.8055,-3.8049,-3.7899,-3.7878,-3.7857,-3.7837,-3.806,-3.806,-3.8206,-3.8208,-3.8209]},{"header":{"parameterUnit":"m.s-1","parameterCategory":1,"la1":30.2991,"la2":30.254,"lo1":-89.0895,"lo2":-89.0444,"dy":0.0017,"dx":0.0017,"nx":28,"ny":28,"refTime":"2025-11-29T09:00:00:Z","depth":0,"parameterNumber":3,"parameterNumberName":"V-component_of_WINDS"},"data":[0,0,0,0,0,0,0,0,0,0,0,0,0,0,0,0,0,0,0,0,0,0,0,0,0,0,0,0,0,0,0,0,0,0,0,0,0,0,0,0,0,0,0,0,0,0,0,0,0,0,0,0,0,0,0,0,0,0,-6.8951,-6.8951,0,-6.899,-6.899,-6.8991,-6.8904,-6.8901,-6.8899,-6.8896,-6.8932,-6.8935,-6.8939,0,0,0,0,0,0,0,0,0,0,0,0,0,-6.8796,-6.88,-6.8951,-6.8951,-6.8952,-6.899,-6.899,-6.8991,-6.8905,-6.8901,-6.8898,-6.8895,-6.8931,-6.8935,-6.8939,0,0,0,0,0,0,0,0,0,0,0,0,0,-6.8852,-6.8801,-6.8951,-6.8913,-6.891,-6.899,-6.899,-6.8991,-6.8905,-6.8901,-6.8897,-6.8893,-6.8929,-6.8935,-6.894,-6.9056,0,0,-6.8956,-6.8958,0,0,0,0,0,0,0,0,-6.8849,-6.8858,-6.8918,-6.8916,-6.8913,-6.8938,-6.8949,-6.9013,-6.8906,-6.8907,-6.8896,-6.8891,-6.8937,-6.8942,-6.8958,-6.9058,-6.9059,-6.8957,-6.896,-6.8962,-6.8964,0,0,0,0,0,0,0,-6.8846,-6.8856,-6.8966,-6.8919,-6.8916,-6.8893,-6.8896,-6.8961,-6.8945,-6.8907,-6.8901,-6.8907,-6.8935,-6.8953,-6.8958,-6.906,-6.8956,-6.8961,-6.8964,-6.8967,-6.9255,-6.9259,0,0,0,0,0,0,-6.8847,-6.8853,-6.8965,-6.8967,-6.887,-6.8899,-6.8903,-6.8934,-6.8944,-6.8941,-6.891,-6.8902,-6.8946,-6.8952,-6.8959,-6.9094,-6.8962,-6.8967,-6.897,-6.925,-6.9256,-6.9261,0,0,0,0,0,0,-6.8844,-6.8858,-6.8963,-6.8909,-6.892,-6.8906,-6.8942,-6.8937,-6.8955,-6.8947,-6.8943,-6.8932,-6.8943,-6.8951,-6.9032,-6.9094,-6.8969,-6.8974,-6.9245,-6.9252,-6.9258,-6.9367,0,0,0,0,0,0,-6.884,-6.8857,-6.8902,-6.891,-6.8924,-6.9038,-6.8946,-6.8941,-6.8965,-6.8955,-6.8966,-6.8964,-6.894,-6.9025,-6.9038,-6.9099,-6.8978,-6.9239,-6.9248,-6.9256,-6.9358,-6.9376,-6.9393,0,0,0,0,0,-6.8835,-6.8931,-6.8905,-6.8919,-6.898,-6.9041,-6.9049,-6.9021,-6.897,-6.9015,-6.9009,-6.8963,-6.9086,-6.9034,-6.9048,-6.9112,-6.9235,-6.9246,-6.9255,-6.935,-6.9373,-6.9392,0,0,0,0,0,0,-6.8929,-6.8931,-6.8903,-6.9005,-6.9024,-6.9027,-6.9082,-6.9046,-6.9079,-6.9069,-6.9031,-6.9035,-6.9122,-6.9125,-6.9067,-6.9224,-6.9152,-6.9165,-6.9219,-6.9241,-6.9258,-6.9255,-6.8983,0,0,0,0,0,-6.8962,-6.9014,-6.9012,-6.9102,-6.9113,-6.9096,-6.9122,-6.9099,-6.9117,-6.9124,-6.9124,-6.9142,-6.9184,-6.9212,-6.9251,-6.9358,-6.9358,-6.9409,-6.9426,-6.9441,-6.9452,-6.9507,-6.9529,-6.9294,-6.9294,-6.9293,0,0,-6.903,-6.9038,-6.9072,-6.9121,-6.9133,-6.9185,-6.9103,-6.9162,-6.92,-6.9132,-6.9209,-6.921,-6.9227,-6.9321,-6.9362,-6.9326,-6.9517,-6.9453,-6.9465,-6.9469,-6.952,-6.9542,-6.9562,-6.93,-6.9299,-6.9298,0,0,-6.9181,-6.9192,-6.9268,-6.9282,-6.9302,-6.929,-6.9308,-6.9317,-6.9315,-6.9391,-6.9341,-6.9385,-6.9459,-6.9473,-6.949,-6.9645,-6.9604,-6.9659,-6.975,-6.9804,-6.9822,-6.9839,-6.9893,-6.9913,-6.9671,-6.9671,-6.9671,0,-6.9262,-6.9341,-6.9311,-6.9374,-6.9396,-6.9338,-6.9413,-6.9427,-6.9458,-6.9474,-6.9434,-6.9525,-6.9532,-6.9628,-6.9666,-6.9682,-6.9701,-6.9657,-6.9823,-6.9838,-6.9853,-6.9904,-6.9925,-6.9677,-6.9677,-6.9676,-6.9675,0,-6.9439,-6.9494,-6.9553,-6.9585,-6.9614,-6.9683,-6.9662,-6.9694,-6.9669,-6.9661,-6.9738,-6.9746,-6.9784,-6.9805,-6.9781,-6.9898,-6.9874,-6.9829,-6.9755,-6.9883,-6.993,-6.9949,-6.9687,-6.9684,-6.9682,-6.9681,0,0,-6.965,-6.9665,-6.9687,-6.9701,-6.9718,-6.9759,-6.9824,-6.9863,-6.9891,-6.9914,-6.9967,-7.0031,-6.9989,-7.0008,-6.9984,-7.0032,-7.0153,-6.998,-6.998,-7.0011,-7.0281,-7.0314,-7.0338,-7.0127,-7.013,-7.0133,-7.0279,0,-6.9798,-6.9912,-6.9887,-6.9998,-7.0047,-6.9993,-7.0049,-7.0065,-7.0059,-7.0099,-7.0092,-7.0138,-7.0079,-7.009,-7.0135,-7.0129,-7.0207,-7.0118,-7.0173,-7.0176,-7.017,-7.0363,-7.0398,-7.0536,-7.0297,-7.0301,-7.0303,0,-6.9986,-7.0017,-7.0134,-7.0142,-7.0162,-7.0214,-7.0247,-7.0286,-7.0302,-7.0294,-7.0316,-7.0283,-7.0346,-7.0273,-7.0358,-7.0299,-7.032,-7.032,-7.0325,-7.0327,-7.0246,-7.0369,-7.0579,-7.0599,-7.0332,-7.033,-7.0328,0,-7.0126,-7.0198,-7.0276,-7.029,-7.0302,-7.0339,-7.0346,-7.0358,-7.0383,-7.0411,-7.0426,-7.0462,-7.0481,-7.0508,-7.0484,-7.0434,-7.0573,-7.0498,-7.0567,-7.0567,-7.0597,-7.0596,-7.0812,-7.0614,-7.0613,-7.0613,-7.0612,0,-7.0294,-7.0367,-7.0339,-7.0388,-7.0467,-7.0437,-7.0516,-7.0516,-7.0528,-7.0574,-7.0529,-7.0572,-7.0539,-7.058,-7.0562,-7.0635,-7.0644,-7.0638,-7.0632,-7.0642,-7.0642,-7.0654,-7.0643,-7.0618,-7.0617,-7.0616,-7.0615,0,-7.0464,-7.0449,-7.053,-7.0536,-7.0539,-7.0597,-7.06,-7.0644,-7.0635,-7.0694,-7.0706,-7.0691,-7.0737,-7.0716,-7.0764,-7.0752,-7.0845,-7.0827,-7.084,-7.0834,-7.0903,-7.0897,-7.1134,-7.1163,-7.0947,-7.0949,-7.0951,0,-7.0571,-7.0626,-7.0637,-7.0665,-7.0675,-7.0722,-7.0746,-7.0718,-7.0746,-7.0768,-7.0809,-7.0851,-7.0883,-7.0958,-7.0951,-7.0986,-7.0968,-7.1049,-7.0973,-7.098,-7.0967,-7.0964,-7.0969,-7.1063,-7.1066,-7.1068,-7.107,0,-7.0762,-7.0752,-7.079,-7.0827,-7.0858,-7.0885,-7.0907,-7.0933,-7.0905,-7.0938,-7.0985,-7.101,-7.1058,-7.11,-7.1131,-7.1136,-7.1098,-7.1094,-7.1111,-7.112,-7.1125,-7.1122,-7.0879,-7.1088,-7.1086,-7.1085,-7.1084,-7.1083,-7.0903,-7.0949,-7.0964,-7.1008,-7.1022,-7.1044,-7.1086,-7.1082,-7.1121,-7.1159,-7.114,-7.1193,-7.1207,-7.1245,-7.1255,-7.1296,-7.1264,-7.129,-7.1296,-7.1302,-7.1311,-7.112,-7.1302,-7.1301,-7.1301,-7.13,-7.13,0,-7.1091,-7.1098,-7.1139,-7.1172,-7.1207,-7.1169,-7.1192,-7.1223,-7.1271,-7.1288,-7.132,-7.1373,-7.1413,-7.1409,-7.1445,-7.1478,-7.1462,-7.1488,-7.1485,-7.1486,-7.1338,-7.1319,-7.1501,-7.1501,-7.1501,-7.1501,-7.1501,-7.1501,-7.1192,-7.1268,-7.1259,-7.1341,-7.1346,-7.14,-7.1416,-7.1435,-7.1448,-7.1509,-7.1543,-7.154,-7.1548,-7.1585,-7.1619,-7.1617,-7.1631,-7.1665,-7.1656,-7.1517,-7.1497,-7.1478,-7.1459,-7.1669,-7.1669,-7.18,-7.1802,-7.1803]}]]